Regional Weather Roundup
Issued by NWS

Home | Current Version | Previous Version | Text Only | Print | Product List | Glossary Off
Versions: 1 2 3 4 5 6 7 8 9 10 11 12 13 14 15 16 17 18 19 20 21 22 23 24 25 26 27 28 29 30 31 32 33 34 35 36 37 38 39 40 41 42 43 44 45 46 47 48 49 50

000
ASUS43 KTOP 280908
RWRKS

WEATHER ROUNDUP FOR KANSAS
NATIONAL WEATHER SERVICE GOODLAND KS
300 AM CST FRI NOV 28 2014

NOTE:  "FAIR" INDICATES FEW OR NO CLOUDS BELOW 12,000 FEET WITH NO
SIGNIFICANT WEATHER AND/OR OBSTRUCTIONS TO VISIBILITY.

KSZ001>006-013>018-027>032-041>047-281000-
NORTHWEST KANSAS

CITY           SKY/WX    TMP DP  RH WIND       PRES   REMARKS
GOODLAND       PTCLDY    36  23  59 SW10      30.00F WCI  28
HAYS           CLEAR     36  21  55 CALM      29.98S
HILL CITY      CLEAR     32  25  75 SW9       29.97R
RUSSELL        CLEAR     33  25  72 S10       29.97S WCI  25
$$

KSZ061>065-074>080-084>089-281000-
SOUTHWEST KANSAS

CITY           SKY/WX    TMP DP  RH WIND       PRES   REMARKS
DODGE CITY     CLEAR     35  26  69 SW13      30.03S WCI  26
ELKHART          N/A     45  24  43 W7          N/A
GARDEN CITY    PTCLDY    30  26  85 W9        30.02S
GREAT BEND     CLEAR     36  23  60 SW9       30.02S
LIBERAL        CLEAR     34  23  64 SW6       30.05S
PRATT          CLEAR     32  27  80 S10       30.05S WCI  24
$$

KSZ066>073-081>083-090>101-281000-
SOUTHEAST KANSAS

CITY           SKY/WX    TMP DP  RH WIND       PRES   REMARKS
CHANUTE        CLEAR     32  26  78 SE13      30.16F WCI  22
COFFEYVILLE    CLEAR     34  27  75 S8        30.20F
HUTCHINSON     CLEAR     35  25  66 S8        30.05F
MEDICINE LODGE   N/A     35  27  72 S6        30.07F
NEWTON         CLEAR     37  21  52 S20G26    30.07F WCI  27
PARSONS        CLEAR     37  27  67 S9        30.20F
WICHITA INTL   PTCLDY    37  24  59 S15       30.08F WCI  28
WICHITA JABRA  CLEAR     39  24  55 S21       30.08F WCI  29
WICHITA MCCONL CLEAR     38  23  56 S15       30.09F WCI  29
WINFIELD       CLEAR     40  24  53 S10       30.14S WCI  33
$$

KSZ007>012-019>026-033>040-048>060-102>105-281000-
NORTHEAST KANSAS

CITY           SKY/WX    TMP DP  RH WIND       PRES   REMARKS
CONCORDIA      PTCLDY    34  24  67 S10       29.98F WCI  26
EMPORIA        CLEAR     31  23  72 S16       30.09F WCI  20
LAWRENCE       CLEAR     29  22  75 S9        30.13F
MANHATTAN      CLEAR     36  23  59 S8        30.05F
MARYSVILLE     CLEAR     32  23  69 S10       30.01F WCI  24
OLATHE IND     CLEAR     33  22  63 S13       30.14F WCI  24
OLATHE EXE     CLEAR     31  23  72 S12       30.13F WCI  22
SALINA         CLEAR     40  26  57 S9        30.03S
TOPEKA BILLARD CLEAR     36  23  59 S8        30.11F
TOPEKA FORBES  CLEAR     34  23  64 SE8       30.10S
$$


USA.gov is the U.S. government's official web portal to all federal, state and local government web resources and services.